Linn Creek, MO

3:27 PM CST on December 03, 2016 (GMT -0600)
Camdenton

Weather History for KH21 - February, 2014

Change the Weather History Date:

Tuesday, February 11, 2014

  Actual Average (KAIZ) Record (KAIZ)
Temperature  
Mean Temperature 18 °F -  
Max Temperature 30 °F 45 °F 69 °F (1999)
Min Temperature 5 °F 27 °F 1 °F (2014)
Degree Days  
Heating Degree Days 48    
Moisture  
Dew Point 2 °F    
Average Humidity 56    
Maximum Humidity 78    
Minimum Humidity 34    
Precipitation  
Precipitation 0.00 in - - ()
Sea Level Pressure  
Sea Level Pressure 30.38 in    
Wind  
Wind Speed 3 mph (ENE)    
Max Wind Speed 7 mph    
Max Gust Speed -    
Visibility 10 miles    
Events      
Averages and records for this station are not official NWS values.
T = Trace of Precipitation, MM = Missing Value Source: NWS Daily Summary

Daily Weather History Graph

Daily Weather History Graph

Search for Another Location

Airport or City:

Trip Planner

Search our weather history database for the weather conditions in past years. The results will help you decide how hot, cold, wet, or windy it might be!

Date:

Astronomy

Feb. 11, 2014 Rise Set
Actual Time 7:05 AM CST 5:45 PM CST
Civil Twilight 6:38 AM CST 6:12 PM CST
Nautical Twilight 6:07 AM CST 6:43 PM CST
Astronomical Twilight 5:36 AM CST 7:14 PM CST
Moon 3:07 PM CST (2/11) 4:41 AM CST (2/11)
Length of Visible Light 11h 34m
Length of Day
10h 40m
Waxing Gibbous, 91% of the Moon is Illuminated
Feb 11
Waxing Gibbous
Feb 14
Full
Feb 22
Last Quarter
Mar 1
New
Mar 8
First Quarter

Hourly Weather History & Observations

Time (CST) Temp. Windchill Dew Point Humidity Pressure Visibility Wind Dir Wind Speed Gust Speed Precip Events Conditions
12:15 AM 10.4 °F 4.0 °F 1.4 °F 67% 30.43 in 10.0 mi NNE 3.5 mph - N/A   Clear
12:35 AM 10.4 °F 2.2 °F 1.4 °F 67% 30.42 in 10.0 mi NNE 4.6 mph - N/A   Clear
12:55 AM 10.4 °F 2.2 °F 1.4 °F 67% 30.42 in 10.0 mi NNE 4.6 mph - N/A   Clear
1:15 AM 10.4 °F 2.2 °F -0.4 °F 62% 30.42 in 10.0 mi NNE 4.6 mph - N/A   Clear
1:35 AM 8.6 °F -1.3 °F -0.4 °F 67% 30.42 in 10.0 mi NNE 5.8 mph - N/A   Clear
1:55 AM 8.6 °F 0.1 °F -0.4 °F 67% 30.42 in 10.0 mi NNE 4.6 mph - N/A   Clear
2:15 AM 8.6 °F 0.1 °F -0.4 °F 67% 30.42 in 10.0 mi NE 4.6 mph - N/A   Clear
2:35 AM 8.6 °F 0.1 °F -0.4 °F 67% 30.42 in 10.0 mi NE 4.6 mph - N/A   Clear
2:55 AM 8.6 °F 2.0 °F -0.4 °F 67% 30.43 in 10.0 mi NE 3.5 mph - N/A   Clear
3:15 AM 8.6 °F - -0.4 °F 67% 30.43 in 10.0 mi Calm Calm - N/A   Clear
3:35 AM 8.6 °F - -0.4 °F 67% 30.43 in 10.0 mi Calm Calm - N/A   Clear
3:55 AM 8.6 °F 2.0 °F -0.4 °F 67% 30.43 in 10.0 mi North 3.5 mph - N/A   Clear
4:15 AM 8.6 °F 2.0 °F -0.4 °F 67% 30.43 in 10.0 mi North 3.5 mph - N/A   Clear
4:35 AM 6.8 °F -0.1 °F -0.4 °F 72% 30.44 in 10.0 mi North 3.5 mph - N/A   Scattered Clouds
4:55 AM 6.8 °F -0.1 °F -0.4 °F 72% 30.45 in 10.0 mi North 3.5 mph - N/A   Scattered Clouds
5:15 AM 6.8 °F -0.1 °F -0.4 °F 72% 30.45 in 10.0 mi North 3.5 mph - N/A   Clear
5:35 AM 6.8 °F -0.1 °F -0.4 °F 72% 30.45 in 10.0 mi NE 3.5 mph - N/A   Clear
5:55 AM 5.0 °F -2.1 °F -0.4 °F 78% 30.45 in 10.0 mi NE 3.5 mph - N/A   Clear
6:15 AM 5.0 °F -2.1 °F -0.4 °F 78% 30.45 in 10.0 mi NNE 3.5 mph - N/A   Clear
6:35 AM 5.0 °F - -0.4 °F 78% 30.46 in 10.0 mi Calm Calm - N/A   Clear
6:55 AM 5.0 °F - -0.4 °F 78% 30.46 in 10.0 mi Calm Calm - N/A   Clear
7:15 AM 5.0 °F - -0.4 °F 78% 30.47 in 10.0 mi Calm Calm - N/A   Clear
7:35 AM 5.0 °F - -0.4 °F 78% 30.47 in 10.0 mi Calm Calm - N/A   Clear
7:55 AM 5.0 °F -2.1 °F -0.4 °F 78% 30.47 in 10.0 mi NNE 3.5 mph - N/A   Clear
8:15 AM 5.0 °F -5.6 °F -0.4 °F 78% 30.47 in 10.0 mi NNE 5.8 mph - N/A   Clear
8:35 AM 8.6 °F 0.1 °F -0.4 °F 67% 30.47 in 10.0 mi ENE 4.6 mph - N/A   Clear
8:55 AM 10.4 °F -0.4 °F -0.4 °F 62% 30.47 in 10.0 mi East 6.9 mph - N/A   Clear
9:15 AM 10.4 °F -0.4 °F -0.4 °F 62% 30.47 in 10.0 mi ESE 6.9 mph - N/A   Clear
9:35 AM 12.2 °F 2.9 °F -0.4 °F 57% 30.47 in 10.0 mi ESE 5.8 mph - N/A   Clear
9:55 AM 12.2 °F 6.1 °F 1.4 °F 62% 30.48 in 10.0 mi NE 3.5 mph - N/A   Clear
10:15 AM 14.0 °F 8.2 °F 1.4 °F 57% 30.48 in 10.0 mi East 3.5 mph - N/A   Clear
10:35 AM 15.8 °F 7.2 °F 3.2 °F 58% 30.48 in 10.0 mi ESE 5.8 mph - N/A   Clear
10:55 AM 15.8 °F 10.2 °F 1.4 °F 53% 30.47 in 10.0 mi SE 3.5 mph - N/A   Clear
11:15 AM 17.6 °F 12.3 °F 1.4 °F 49% 30.46 in 10.0 mi ESE 3.5 mph - N/A   Clear
11:35 AM 19.4 °F - 1.4 °F 46% 30.44 in 10.0 mi Calm Calm - N/A   Clear
11:55 AM 21.2 °F 16.4 °F 3.2 °F 46% 30.43 in 10.0 mi NE 3.5 mph - N/A   Clear
12:15 PM 21.2 °F 13.6 °F 3.2 °F 46% 30.42 in 10.0 mi ESE 5.8 mph - N/A   Clear
12:35 PM 23.0 °F 17.0 °F 3.2 °F 43% 30.41 in 10.0 mi East 4.6 mph - N/A   Clear
12:55 PM 23.0 °F 18.4 °F 5.0 °F 46% 30.39 in 10.0 mi ESE 3.5 mph - N/A   Clear
1:15 PM 23.0 °F 18.4 °F 5.0 °F 46% 30.37 in 10.0 mi SE 3.5 mph - N/A   Clear
1:35 PM 26.6 °F - 3.2 °F 37% 30.37 in 10.0 mi Calm Calm - N/A   Clear
1:55 PM 26.6 °F 22.6 °F 5.0 °F 40% 30.36 in 10.0 mi East 3.5 mph - N/A   Clear
2:15 PM 28.4 °F - 5.0 °F 37% 30.35 in 10.0 mi Calm Calm - N/A   Clear
2:35 PM 26.6 °F 22.6 °F 5.0 °F 40% 30.34 in 10.0 mi East 3.5 mph - N/A   Clear
2:55 PM 28.4 °F 24.6 °F 5.0 °F 37% 30.33 in 10.0 mi East 3.5 mph - N/A   Clear
3:15 PM 28.4 °F - 3.2 °F 34% 30.33 in 10.0 mi Calm Calm - N/A   Clear
3:35 PM 28.4 °F - 3.2 °F 34% 30.33 in 10.0 mi Calm Calm - N/A   Clear
3:55 PM 28.4 °F - 3.2 °F 34% 30.31 in 10.0 mi Calm Calm - N/A   Clear
4:15 PM 30.2 °F - 5.0 °F 34% 30.31 in 10.0 mi Calm Calm - N/A   Clear
4:35 PM 28.4 °F - 5.0 °F 37% 30.29 in 10.0 mi Calm Calm - N/A   Clear
4:55 PM 28.4 °F 24.6 °F 5.0 °F 37% 30.29 in 10.0 mi North 3.5 mph - N/A   Clear
5:15 PM 28.4 °F - 5.0 °F 37% 30.29 in 10.0 mi Calm Calm - N/A   Clear
5:35 PM 26.6 °F 22.6 °F 5.0 °F 40% 30.29 in 10.0 mi NE 3.5 mph - N/A   Clear
5:55 PM 26.6 °F 22.6 °F 5.0 °F 40% 30.28 in 10.0 mi NE 3.5 mph - N/A   Clear
6:15 PM 24.8 °F - 5.0 °F 43% 30.29 in 10.0 mi Calm Calm - N/A   Clear
6:35 PM 24.8 °F 20.5 °F 5.0 °F 43% 30.29 in 10.0 mi ENE 3.5 mph - N/A   Clear
6:55 PM 23.0 °F - 5.0 °F 46% 30.29 in 10.0 mi Calm Calm - N/A   Clear
7:15 PM 23.0 °F 18.4 °F 5.0 °F 46% 30.29 in 10.0 mi NE 3.5 mph - N/A   Clear
7:35 PM 23.0 °F 18.4 °F 5.0 °F 46% 30.30 in 10.0 mi NE 3.5 mph - N/A   Clear
7:55 PM 21.2 °F 16.4 °F 5.0 °F 50% 30.30 in 10.0 mi NNE 3.5 mph - N/A   Clear
8:15 PM 21.2 °F - 5.0 °F 50% 30.30 in 10.0 mi Calm Calm - N/A   Clear
8:35 PM 21.2 °F - 5.0 °F 50% 30.30 in 10.0 mi Calm Calm - N/A   Clear
8:55 PM 21.2 °F - 5.0 °F 50% 30.30 in 10.0 mi Calm Calm - N/A   Clear
9:15 PM 19.4 °F 14.3 °F 5.0 °F 54% 30.30 in 10.0 mi East 3.5 mph - N/A   Clear
9:35 PM 19.4 °F 14.3 °F 5.0 °F 54% 30.30 in 10.0 mi East 3.5 mph - N/A   Clear
9:55 PM 19.4 °F 14.3 °F 5.0 °F 54% 30.30 in 10.0 mi East 3.5 mph - N/A   Clear
10:15 PM 17.6 °F - 5.0 °F 58% 30.29 in 10.0 mi Calm Calm - N/A   Clear
10:35 PM 19.4 °F - 5.0 °F 54% 30.29 in 10.0 mi Calm Calm - N/A   Clear
10:55 PM 17.6 °F - 5.0 °F 58% 30.28 in 10.0 mi Calm Calm - N/A   Clear
11:15 PM 17.6 °F 9.3 °F 5.0 °F 58% 30.26 in 10.0 mi SE 5.8 mph - N/A   Clear
11:35 PM 15.8 °F 6.1 °F 5.0 °F 62% 30.26 in 10.0 mi SE 6.9 mph - N/A   Clear
11:55 PM 17.6 °F 8.2 °F 5.0 °F 58% 30.25 in 10.0 mi SE 6.9 mph - N/A   Clear